Regional Weather Roundup
Issued by NWS

Home | Current Version | Previous Version | Graphics & Text | Print | Product List | Glossary On
Versions: 1 2 3 4 5 6 7 8 9 10 11 12 13 14 15 16 17 18 19 20 21 22 23 24 25 26 27 28 29 30 31 32 33 34 35 36 37 38 39 40 41 42 43 44 45 46 47 48 49 50
000
ASUS43 KFSD 290010
RWRSD

WEATHER ROUNDUP FOR SOUTH DAKOTA
NATIONAL WEATHER SERVICE SIOUX FALLS SD
700 PM CDT FRI AUG 28 2015

NOTE: "FAIR" INDICATES FEW OR NO CLOUDS BELOW 12,000 FEET WITH NO
SIGNIFICANT WEATHER AND/OR OBSTRUCTIONS TO VISIBILITY.


SDZ001>005-009-010-012>017-290100-
NORTHWEST AND NORTH CENTRAL SOUTH DAKOTA

CITY           SKY/WX    TMP DP  RH WIND       PRES   REMARKS
BUFFALO          N/A     82  51  34 W12       29.94S
FAITH            N/A     82  59  45 S9        29.96S
MOBRIDGE       SUNNY     80  68  66 S8        29.90S
$$

SDZ012>016-024>037-041>051-057-063-072>074-290100-
SOUTHWEST AND SOUTH CENTRAL SOUTH DAKOTA

CITY           SKY/WX    TMP DP  RH WIND       PRES   REMARKS
RAPID CTY ARPT SUNNY     82  66  58 E3        30.03S
PIERRE         SUNNY     81  68  64 E5        29.94R
CUSTER         SUNNY     77  49  37 S5        30.20S
ELLSWORTH AFB  SUNNY     82  63  52 S5        30.03R
PHILIP         SUNNY     82  67  60 S5        29.97R
PINE RIDGE     SUNNY     85  50  29 CALM      30.05S
WINNER         FAIR      77  64  64 SE5       29.99S
$$

SDZ004>011-016>023-039-040-290100-
NORTHEAST SOUTH DAKOTA

CITY           SKY/WX    TMP DP  RH WIND       PRES   REMARKS
ABERDEEN       SUNNY     76  67  73 S7        29.93S
WATERTOWN      SUNNY     73  63  70 S8        29.97S
BROOKINGS      MOSUNNY   72  61  68 E8        30.01R
SISSETON         N/A     75  65  70 S9        29.92S
$$

SDZ017-020-022-023-036>040-048>070-290100-
SOUTHEAST SOUTH DAKOTA

CITY           SKY/WX    TMP DP  RH WIND       PRES   REMARKS
SIOUX FALLS    CLOUDY    69  61  75 NE10      29.97R
HURON          SUNNY     76  65  68 SE5       29.94S
CHAMBERLAIN    SUNNY     74  67  79 SW5       29.98S
MITCHELL       SUNNY     75  66  73 E3        29.96S
YANKTON        SUNNY     70  63  78 NE5       29.95R
$$

ABBREVIATIONS USED IN REMARKS
   TC - TEMPERATURE IN CELSIUS
  WCI - WIND CHILL INDEX
   HX - HEAT INDEX
  VSB - VISIBILITY



USA.gov is the U.S. government's official web portal to all federal, state and local government web resources and services.